Location: *
(35.2348°S, 91.3916°E)
Time: 00:16:04
(UTC+00:00)

Cosmos 1898 Rocket - Pass Details

Date: 23 October 2019
Orbit: 753 x 784 km, 74.0° (Epoch: 13 November)

Event Time Altitude Azimuth Distance (km) Brightness Sun altitude
Exits shadow 14:40:45 46° 141° (SE) 1,061 4.1 -27.2°
Drops below altitude 10° 14:44:33 10° 157° (SSE) 2,360 6.2 -27.8°
Sets 14:46:58 0° 159° (SSE) 3,291 7.0 -28.1°
